NOAA 17

Satellite information

Favourite Embed

Satellite Type and Status

PAYLOADIN ORBIT

Key statistics

Satellite NOAA 17 at a glance.

Uptime

8515

Days in orbit

Revolutions

≈ 14.3

Per day

Orbit

SSO

Sun Synchronous Orbit

Inclination

98.8

Latest

Satellite identification and parameters

Extended collection of information and parameters for NOAA 17.

Object identification

Identified? True

Debris? False

Object name: NOAA 17

International designator: 2002-032A

Object number (NORAD): 27453

Object ID (CCSDS): 27453

Country: UNITED STATES OF AMERICA (US)

Current information (Y/N): Y

RCS size: LARGE

Orbital parameters

Period: 100.976 minutes

Inclination: 98.8296 deg

SMA: 7182.994 km

Apoapsis: 813.057 km

Periapsis: 796.661 km

RAAN: 247.2516 deg

Eccentricy: 0.00114136

Argument of periapsis: 345.2132 deg

Mean anomaly: 14.8712 deg

Mean motion: 14.26082063 rev/day

Mean motion (dot): 0.00000373 rev/day2

B* drag term: 0.00017476491 1/REarth

Two-line elements (TLE)

Creation date: Oct. 16, 2025, 2:37 a.m.

Reference frame: TEME

Reference center: EARTH

Epoch: Oct. 15, 2025, 10:30 p.m. UTC

TLE line 0: 0 NOAA 17

TLE line 1: 1 27453U 02032A 25288.93781914 .00000373 00000-0 17476-3 0 9996

TLE line 2: 2 27453 98.8296 247.2516 0011414 345.2132 14.8712 14.26082063212171

Live tracking on map

Real-time ground track for satellite NOAA 17.

In-orbit conjunctions

A list of the most updated potential collisions computed for object NOAA 17.

Target Orbit TCA Probability of collision Miss distance Type
FENGYUN 1C DEB SSO 2025-05-24 10:46:37 0.0003186319 869.0 (m) DEBRIS
CZ-6A DEB LEO 2025-05-15 07:08:12 0.0006107306 397.0 (m) DEBRIS
NOAA 17 DEB SSO 2025-02-26 18:16:53 0.000208103 951.0 (m) DEBRIS
CZ-6A DEB LEO 2024-09-23 03:09:15 0.0001710136 848.0 (m) DEBRIS
NOAA 16 DEB SSO 2024-08-14 14:34:14 0.0001569409 595.0 (m) DEBRIS

Associated space launch

NOAA M carried weather imagers and microwave and infrared sounders, as well as a SARSAT search-and-rescue package. It had an on-orbit mass of 1475 kg.

NOAA 17 was lifted into orbit during the mission ‘Titan II SLV | NOAA 17’, on board a Titan II SLV space rocket.

The launch took place on June 24, 2002, 6:23 p.m. from Space Launch Complex 4W.

For more information about the launch, click the button.

Launch to space Titan II SLV | NOAA 17
Titan II SLV | NOAA 17

Agency: N/A

Status: Launch Successful

Launch date: June 24, 2002, 6:23 p.m. UTC

Rocket: Titan II SLV

Launch pad: Space Launch Complex 4W

Location: Vandenberg SFB, CA, USA

...

Latest news about this satellite

There are no fresh news available about this satellite. Check back as we update our databases every day.


Newsletter sign-up

Weekly statistics, charts and insights to help you stay on top of the space industry.